Home   Weather   43°43'N, 70°17'W   Past weeks
Flag for USA

Past Weather in 43°43'N, 70°17'W, USA — Yesterday and Last 2 Weeks

Now
46 °F

Light rain. Fog.


Feels Like: 41 °F
Forecast: 48 / 43 °F
Wind: 10 mph from Northeast

Location: Portland - Portland International Jetport

Current Time: Apr 23, 2019 at 2:32:48 pm

Latest Report: Apr 23, 2019 at 1:51 pm


Visibility: 3 mi

Pressure: 29.96 "Hg

Humidity: 86%

Dew Point: 42 °F

Location of 43°43'N, 70°17'WLocation

Past Weather in 43°43'N, 70°17'W — Graph

°F

43°43'N, 70°17'W Temperature Yesterday

Maximum temperature yesterday: 59 °F (at 11:03 am)
Minimum temperature yesterday: 44 °F (at 1:42 am)
Average temperature yesterday: 51 °F

High & Low Weather Summary for the Past Weeks

 TemperatureHumidityPressure
High71 °F (Apr 13, 2:51 pm)100% (Apr 9, 6:22 pm)30.34 "Hg (Apr 9, 6:22 pm)
Low27 °F (Apr 11, 5:51 am)20% (Apr 17, 3:51 pm)29.16 "Hg (Apr 15, 3:51 pm)
Average46 °F78%29.91 "Hg
* Reported Apr 8 12:04 pm — Apr 23 12:51 pm, 43°43'N, 70°17'W. Weather by CustomWeather, © 2019

Note: Actual official high and low records may vary slightly from our data, if they occured in-between our weather recording intervals... More about our weather records

Advertising

43°43'N, 70°17'W Weather History for the Previous 24 Hours

Scroll right to see more
 ConditionsComfort  
Time TempWeatherWind HumidityBarometerVisibility
12:51 pm
Tue, Apr 23
46 °FLight rain. Overcast.9 mph83%29.96 "Hg6 mi
11:51 am47 °FFog.12 mph83%29.97 "Hg10 mi
10:51 am48 °FOvercast.13 mph80%29.98 "Hg10 mi
9:51 am48 °FMostly cloudy.13 mph83%29.97 "Hg10 mi
8:51 am48 °FLow clouds.12 mph86%29.97 "Hg10 mi
7:51 am48 °FFog.14 mph89%29.97 "Hg3 mi
7:15 am48 °FFog.13 mph89%29.98 "Hg2 mi
6:51 am49 °FFog.14 mph86%29.98 "Hg10 mi
5:51 am50 °FLow clouds.9 mph86%29.96 "Hg10 mi
4:51 am51 °FLow clouds.9 mph89%29.96 "Hg10 mi
3:51 am51 °FLight rain. Low clouds.10 mph89%29.96 "Hg9 mi
2:51 am51 °FLow clouds.14 mph89%29.96 "Hg10 mi
2:34 am51 °FLow clouds.14 mph89%29.97 "Hg10 mi
1:51 am52 °FLight rain. Low clouds.14 mph89%29.98 "Hg10 mi
12:51 am52 °FLow clouds.13 mph89%30.00 "Hg10 mi
12:11 am54 °FLow clouds.10 mph90%30.01 "Hg9 mi
12:00 am54 °FOvercast.13 mph90%30.01 "Hg10 mi
10:51 pm
Mon, Apr 22
55 °FLight rain. Fog.13 mph90%30.01 "Hg3 mi
9:51 pm56 °FLight rain. Fog.12 mph90%30.02 "Hg2 mi
8:51 pm56 °FLight rain. Fog.13 mph90%30.04 "Hg3 mi
7:51 pm56 °FLight rain. Fog.9 mph90%30.05 "Hg3 mi
6:51 pm56 °FLight rain. Fog.13 mph90%30.06 "Hg2 mi
6:02 pm56 °FCloudy.6 mph90%30.06 "Hg10 mi
5:51 pm55 °FMostly cloudy.9 mph93%30.04 "Hg10 mi
5:08 pm54 °FLight rain. Fog.7 mph93%30.07 "Hg6 mi
4:51 pm54 °FLight rain. Fog.6 mph90%30.07 "Hg4 mi
3:51 pm55 °FOvercast.5 mph83%30.10 "Hg10 mi
2:51 pm52 °FOvercast.3 mph83%30.10 "Hg10 mi
2:28 pm50 °FLow clouds.9 mph86%30.11 "Hg10 mi
Weather by CustomWeather, © 2019

See weather overview